SAS4697 ENGM-GCLP

Flight info

Callsign SAS4697
Flight time N/A
Altitude 34000
Route VIPPA DCT LINVI L39 GOLUM DCT UPGAS DCT TIPAN DCT EZTIM UM185 DIGSU DCT IBNID/N0446F350 M195 LORKU DCT POZOF DCT BALDA DCT BATAX DCT PINOX DCT TOFEF DCT BIRBA DCT OSLAD UR724 IBALU UN857 TERTO
Aircraft A320/M-SDE3FGHIRWY/LB1

Departure

Time N/A
Airport Oslo-Gardermoen International Airport (ENGM)

Arrival

Time 2026-04-28 13:30
Airport Gran Canaria Airport (GCLP)
Time Latitude Longitude Altitude Speed Heading
2026-04-28 11:01 41.45746 -6.70757 33945 ft 415 kts 197°
2026-04-28 11:01 41.42986 -6.71723 33945 ft 415 kts 197°
2026-04-28 11:02 41.37364 -6.73688 33939 ft 415 kts 197°
2026-04-28 11:02 41.31807 -6.75629 33933 ft 416 kts 197°
2026-04-28 11:03 41.26202 -6.77587 33940 ft 416 kts 197°
2026-04-28 11:03 41.23407 -6.78564 34159 ft 415 kts 197°
2026-04-28 11:03 41.20607 -6.79542 34393 ft 416 kts 197°
2026-04-28 11:03 41.17806 -6.80519 34627 ft 416 kts 197°
2026-04-28 11:04 41.15009 -6.81488 34855 ft 417 kts 196°
2026-04-28 11:04 41.09383 -6.83430 34933 ft 417 kts 196°
2026-04-28 11:05 41.03770 -6.85370 34930 ft 416 kts 196°
2026-04-28 11:05 40.98170 -6.87303 34929 ft 416 kts 196°
2026-04-28 11:06 40.92601 -6.89228 34927 ft 416 kts 196°
2026-04-28 11:06 40.87004 -6.91154 34933 ft 416 kts 196°
2026-04-28 11:07 40.81402 -6.93082 34935 ft 416 kts 196°
2026-04-28 11:07 40.75803 -6.95011 34935 ft 416 kts 196°
2026-04-28 11:08 40.70203 -6.96934 34938 ft 416 kts 196°
2026-04-28 11:08 40.64599 -6.98842 34934 ft 416 kts 196°
2026-04-28 11:09 40.58997 -7.00753 34940 ft 416 kts 196°
2026-04-28 11:09 40.53398 -7.02668 34938 ft 416 kts 196°
2026-04-28 11:10 40.47800 -7.04574 34933 ft 416 kts 196°
2026-04-28 11:10 40.42200 -7.06474 34941 ft 416 kts 195°
2026-04-28 11:11 40.36597 -7.08371 34948 ft 416 kts 196°
2026-04-28 11:11 40.30994 -7.10264 34944 ft 416 kts 196°
2026-04-28 11:12 40.25392 -7.12168 34932 ft 416 kts 196°
2026-04-28 11:12 40.19794 -7.14084 34937 ft 416 kts 196°
2026-04-28 11:13 40.14194 -7.15991 34934 ft 416 kts 196°
2026-04-28 11:13 40.08597 -7.17890 34937 ft 416 kts 196°
2026-04-28 11:14 40.03037 -7.19775 34938 ft 415 kts 196°
2026-04-28 11:14 39.97440 -7.21674 34929 ft 415 kts 196°
2026-04-28 11:15 39.91838 -7.23571 34951 ft 416 kts 195°
2026-04-28 11:15 39.86239 -7.25457 34937 ft 415 kts 195°
2026-04-28 11:16 39.81550 -7.27036 34930 ft 415 kts 195°
2026-04-28 11:16 39.75993 -7.28908 34926 ft 415 kts 195°
2026-04-28 11:17 39.70389 -7.30787 34925 ft 416 kts 195°
2026-04-28 11:17 39.64779 -7.32664 34924 ft 416 kts 195°
2026-04-28 11:18 39.59171 -7.34542 34923 ft 416 kts 195°
2026-04-28 11:18 39.53561 -7.36423 34913 ft 417 kts 195°
2026-04-28 11:19 39.47944 -7.38327 34916 ft 418 kts 195°
2026-04-28 11:19 39.42327 -7.40286 34921 ft 418 kts 196°
2026-04-28 11:20 39.36708 -7.42243 34916 ft 418 kts 196°
2026-04-28 11:20 39.31078 -7.44178 34923 ft 419 kts 195°
2026-04-28 11:21 39.25440 -7.46099 34916 ft 419 kts 195°
2026-04-28 11:21 39.19796 -7.48034 34911 ft 420 kts 195°
2026-04-28 11:22 39.14150 -7.49970 34925 ft 420 kts 195°
2026-04-28 11:22 39.08531 -7.51843 34918 ft 420 kts 194°
2026-04-28 11:23 39.02807 -7.53404 34930 ft 420 kts 192°
2026-04-28 11:23 38.97070 -7.54832 34929 ft 419 kts 192°
2026-04-28 11:24 38.91350 -7.56297 34920 ft 419 kts 193°
2026-04-28 11:24 38.85649 -7.57809 34920 ft 418 kts 193°
2026-04-28 11:25 38.79958 -7.59332 34922 ft 417 kts 193°
2026-04-28 11:25 38.74273 -7.60845 34929 ft 417 kts 193°
2026-04-28 11:26 38.68587 -7.62338 34929 ft 417 kts 193°
2026-04-28 11:26 38.62940 -7.63822 34912 ft 417 kts 193°
2026-04-28 11:27 38.57265 -7.65322 34920 ft 416 kts 193°
2026-04-28 11:27 38.51589 -7.66820 34913 ft 416 kts 193°
2026-04-28 11:28 38.45912 -7.68300 34914 ft 416 kts 192°
2026-04-28 11:28 38.40244 -7.69777 34913 ft 416 kts 193°
2026-04-28 11:29 38.34582 -7.71258 34911 ft 415 kts 193°
2026-04-28 11:29 38.28910 -7.72745 34914 ft 415 kts 193°
2026-04-28 11:30 38.23248 -7.74223 34922 ft 415 kts 192°
2026-04-28 11:30 38.14753 -7.76422 34922 ft 415 kts 192°
2026-04-28 11:31 38.09089 -7.77896 34920 ft 415 kts 193°
2026-04-28 11:31 38.03423 -7.79368 34931 ft 415 kts 193°
2026-04-28 11:32 37.97791 -7.80826 34921 ft 415 kts 192°
2026-04-28 11:32 37.92125 -7.82295 34908 ft 415 kts 192°
2026-04-28 11:33 37.86460 -7.83760 34923 ft 415 kts 192°
2026-04-28 11:33 37.80794 -7.85211 34925 ft 415 kts 192°
2026-04-28 11:34 37.75122 -7.86660 34928 ft 415 kts 192°
2026-04-28 11:34 37.69457 -7.88116 34930 ft 415 kts 192°
2026-04-28 11:35 37.63792 -7.89573 34927 ft 415 kts 192°
2026-04-28 11:35 37.58126 -7.91024 34932 ft 415 kts 192°
2026-04-28 11:36 37.52459 -7.92464 34937 ft 415 kts 192°
2026-04-28 11:36 37.46800 -7.93905 34936 ft 415 kts 192°
2026-04-28 11:37 37.41179 -7.95341 34932 ft 414 kts 192°
2026-04-28 11:37 37.35531 -7.96790 34935 ft 414 kts 192°
2026-04-28 11:38 37.29875 -7.98227 34941 ft 415 kts 192°
2026-04-28 11:38 37.24215 -7.99657 34924 ft 415 kts 192°
2026-04-28 11:39 37.18555 -8.01082 34916 ft 415 kts 192°
2026-04-28 11:39 37.12895 -8.02514 34911 ft 415 kts 192°
2026-04-28 11:40 37.07236 -8.03942 34908 ft 415 kts 192°
2026-04-28 11:40 37.01585 -8.05373 34906 ft 414 kts 192°
2026-04-28 11:41 36.95931 -8.06792 34898 ft 414 kts 192°
2026-04-28 11:41 36.90275 -8.08212 34905 ft 414 kts 192°
2026-04-28 11:42 36.84662 -8.09618 34908 ft 414 kts 192°
2026-04-28 11:42 36.79014 -8.11037 34911 ft 414 kts 192°
2026-04-28 11:43 36.73365 -8.12443 34908 ft 414 kts 192°
2026-04-28 11:43 36.67719 -8.13848 34907 ft 414 kts 192°
2026-04-28 11:44 36.62068 -8.15261 34904 ft 413 kts 192°
2026-04-28 11:44 36.56461 -8.16660 34899 ft 413 kts 192°
2026-04-28 11:45 36.50831 -8.18065 34898 ft 413 kts 192°
2026-04-28 11:45 36.45198 -8.19465 34890 ft 412 kts 192°
2026-04-28 11:46 36.39570 -8.20853 34891 ft 412 kts 192°
2026-04-28 11:46 36.33950 -8.22238 34891 ft 412 kts 192°
2026-04-28 11:47 36.28334 -8.23633 34896 ft 411 kts 192°
2026-04-28 11:47 36.22720 -8.25022 34891 ft 411 kts 192°
2026-04-28 11:48 36.17104 -8.26405 34880 ft 412 kts 192°
2026-04-28 11:48 36.11480 -8.27790 34883 ft 412 kts 192°
2026-04-28 11:49 36.05855 -8.29175 34884 ft 412 kts 192°
2026-04-28 11:49 36.00227 -8.30559 34887 ft 412 kts 192°
2026-04-28 11:50 35.94600 -8.31982 34888 ft 413 kts 193°
2026-04-28 11:50 35.89030 -8.33719 34886 ft 413 kts 195°
2026-04-28 11:51 35.83480 -8.35584 34895 ft 414 kts 195°
2026-04-28 11:51 35.77936 -8.37397 34891 ft 415 kts 195°
2026-04-28 11:52 35.72328 -8.39166 34895 ft 416 kts 194°
2026-04-28 11:52 35.66708 -8.40908 34898 ft 416 kts 194°
2026-04-28 11:53 35.61093 -8.42662 34906 ft 417 kts 195°
2026-04-28 11:53 35.55479 -8.44440 34910 ft 417 kts 195°
2026-04-28 11:54 35.49865 -8.46209 34912 ft 417 kts 195°
2026-04-28 11:54 35.44246 -8.47978 34905 ft 417 kts 195°
2026-04-28 11:55 35.38626 -8.49733 34907 ft 417 kts 194°
2026-04-28 11:55 35.33000 -8.51495 34912 ft 417 kts 194°
2026-04-28 11:56 35.27401 -8.53247 34916 ft 418 kts 194°
2026-04-28 11:56 35.21768 -8.55008 34922 ft 418 kts 194°
2026-04-28 11:57 35.16130 -8.56766 34915 ft 418 kts 194°
2026-04-28 11:57 35.10482 -8.58524 34922 ft 418 kts 194°
2026-04-28 11:58 35.04837 -8.60277 34923 ft 419 kts 194°
2026-04-28 11:58 34.99192 -8.62032 34926 ft 419 kts 194°
2026-04-28 11:59 34.93538 -8.63787 34925 ft 419 kts 194°
2026-04-28 11:59 34.87881 -8.65540 34929 ft 420 kts 195°
2026-04-28 12:00 34.82219 -8.67290 34940 ft 420 kts 195°
2026-04-28 12:00 34.76553 -8.69036 34943 ft 420 kts 195°
2026-04-28 12:01 34.71842 -8.70494 34947 ft 420 kts 195°
2026-04-28 12:01 34.66177 -8.72236 34949 ft 420 kts 195°
2026-04-28 12:02 34.60509 -8.73979 34944 ft 420 kts 195°
2026-04-28 12:02 34.54835 -8.75720 34942 ft 421 kts 195°
2026-04-28 12:03 34.49152 -8.77454 34944 ft 421 kts 195°
2026-04-28 12:03 34.43691 -8.79929 34944 ft 419 kts 211°
2026-04-28 12:04 34.39022 -8.84144 34940 ft 419 kts 218°
2026-04-28 12:04 34.34480 -8.88518 34939 ft 420 kts 218°
2026-04-28 12:05 34.29893 -8.92902 34945 ft 420 kts 218°
2026-04-28 12:05 34.25309 -8.97288 34953 ft 420 kts 218°
2026-04-28 12:06 34.20726 -9.01683 34957 ft 421 kts 218°
2026-04-28 12:06 34.16139 -9.06075 34957 ft 421 kts 218°
2026-04-28 12:07 34.11513 -9.10474 34955 ft 421 kts 219°
2026-04-28 12:07 34.06938 -9.14822 34955 ft 422 kts 219°
2026-04-28 12:08 34.02330 -9.19211 34955 ft 422 kts 219°
2026-04-28 12:08 33.97714 -9.23604 34956 ft 423 kts 219°
2026-04-28 12:09 33.93095 -9.27990 34957 ft 423 kts 219°
2026-04-28 12:09 33.88467 -9.32373 34961 ft 423 kts 219°
2026-04-28 12:10 33.83833 -9.36755 34967 ft 423 kts 219°
2026-04-28 12:10 33.79202 -9.41133 34969 ft 423 kts 219°
2026-04-28 12:11 33.74570 -9.45500 34973 ft 423 kts 219°
2026-04-28 12:11 33.69955 -9.49847 34972 ft 424 kts 219°
2026-04-28 12:12 33.65304 -9.54225 34976 ft 424 kts 219°
2026-04-28 12:12 33.60658 -9.58596 34977 ft 424 kts 219°
2026-04-28 12:13 33.56039 -9.62938 34969 ft 424 kts 220°
2026-04-28 12:13 33.51394 -9.67291 34972 ft 424 kts 219°
2026-04-28 12:14 33.46742 -9.71645 34980 ft 424 kts 219°
2026-04-28 12:14 33.42081 -9.75996 34982 ft 424 kts 219°
2026-04-28 12:15 33.37426 -9.80333 34983 ft 424 kts 219°
2026-04-28 12:15 33.32768 -9.84672 34987 ft 424 kts 220°
2026-04-28 12:16 33.28101 -9.89006 34975 ft 425 kts 220°
2026-04-28 12:16 33.23430 -9.93355 34978 ft 425 kts 220°
2026-04-28 12:17 33.18780 -9.97668 34979 ft 426 kts 220°
2026-04-28 12:17 33.14104 -10.02001 34985 ft 426 kts 220°
2026-04-28 12:18 33.09417 -10.06349 34984 ft 426 kts 220°
2026-04-28 12:18 33.04730 -10.10682 34985 ft 426 kts 220°
2026-04-28 12:19 33.00046 -10.14998 34989 ft 426 kts 220°
2026-04-28 12:19 32.95349 -10.19320 34992 ft 426 kts 220°
2026-04-28 12:20 32.90655 -10.23633 34983 ft 426 kts 220°
2026-04-28 12:20 32.85950 -10.27945 34984 ft 427 kts 220°
2026-04-28 12:21 32.81248 -10.32248 34986 ft 427 kts 220°
2026-04-28 12:21 32.76564 -10.36533 34986 ft 427 kts 220°
2026-04-28 12:22 32.71852 -10.40839 34979 ft 427 kts 220°
2026-04-28 12:22 32.67143 -10.45148 34985 ft 427 kts 220°
2026-04-28 12:23 32.62426 -10.49448 34990 ft 427 kts 220°
2026-04-28 12:23 32.57700 -10.53738 34997 ft 427 kts 220°
2026-04-28 12:24 32.52980 -10.58025 34991 ft 428 kts 220°
2026-04-28 12:24 32.48257 -10.62316 34990 ft 428 kts 220°
2026-04-28 12:25 32.43548 -10.66583 34976 ft 429 kts 220°
2026-04-28 12:25 32.38804 -10.70884 34983 ft 429 kts 221°
2026-04-28 12:26 32.34067 -10.75182 34995 ft 429 kts 221°
2026-04-28 12:26 32.29320 -10.79475 35001 ft 430 kts 220°
2026-04-28 12:27 32.24567 -10.83752 35004 ft 430 kts 220°
2026-04-28 12:27 32.19807 -10.88028 35007 ft 430 kts 220°
2026-04-28 12:28 32.15051 -10.92308 35011 ft 430 kts 221°
2026-04-28 12:28 32.10296 -10.96586 34993 ft 430 kts 221°
2026-04-28 12:29 32.03132 -11.03007 34998 ft 432 kts 221°
2026-04-28 12:30 31.98343 -11.07286 35006 ft 432 kts 221°
2026-04-28 12:30 31.93545 -11.11568 35015 ft 433 kts 221°
2026-04-28 12:31 31.88778 -11.15818 35018 ft 433 kts 221°
2026-04-28 12:31 31.83976 -11.20100 35007 ft 433 kts 221°
2026-04-28 12:32 31.79182 -11.24375 35017 ft 432 kts 221°
2026-04-28 12:32 31.74387 -11.28638 35017 ft 432 kts 221°
2026-04-28 12:33 31.69600 -11.32897 35003 ft 432 kts 221°
2026-04-28 12:33 31.64810 -11.37170 34993 ft 433 kts 221°
2026-04-28 12:34 31.60000 -11.41449 34993 ft 434 kts 221°
2026-04-28 12:34 31.55177 -11.45730 34979 ft 435 kts 221°
2026-04-28 12:35 31.50359 -11.50008 35006 ft 434 kts 221°
2026-04-28 12:35 31.45546 -11.54279 35016 ft 433 kts 221°
2026-04-28 12:36 31.40737 -11.58535 35020 ft 433 kts 221°
2026-04-28 12:36 31.35962 -11.62760 35022 ft 433 kts 221°
2026-04-28 12:37 31.31156 -11.67005 35019 ft 432 kts 221°
2026-04-28 12:37 31.26352 -11.71229 35019 ft 432 kts 221°
2026-04-28 12:38 31.21553 -11.75444 35014 ft 431 kts 221°
2026-04-28 12:38 31.16771 -11.79654 35025 ft 430 kts 221°
2026-04-28 12:39 31.11997 -11.83861 35036 ft 429 kts 221°
2026-04-28 12:39 31.07224 -11.88056 35037 ft 429 kts 221°
2026-04-28 12:40 31.02450 -11.92237 35036 ft 429 kts 221°
2026-04-28 12:40 30.97711 -11.96379 35030 ft 429 kts 221°
2026-04-28 12:41 30.92936 -12.00545 35026 ft 427 kts 221°
2026-04-28 12:41 30.88181 -12.04690 35017 ft 426 kts 222°
2026-04-28 12:42 30.83436 -12.08835 35017 ft 426 kts 222°
2026-04-28 12:42 30.78686 -12.12972 35017 ft 427 kts 221°
2026-04-28 12:43 30.73925 -12.17105 35019 ft 427 kts 221°
2026-04-28 12:43 30.69161 -12.21241 35022 ft 427 kts 221°
2026-04-28 12:44 30.64400 -12.25370 35003 ft 427 kts 221°
2026-04-28 12:44 30.59640 -12.29483 35017 ft 426 kts 221°
2026-04-28 12:45 30.54920 -12.33573 35027 ft 426 kts 222°
2026-04-28 12:45 30.50175 -12.37679 35027 ft 425 kts 221°
2026-04-28 12:46 30.45418 -12.41761 35012 ft 425 kts 221°
2026-04-28 12:46 30.40668 -12.45847 35011 ft 426 kts 221°
2026-04-28 12:47 30.35912 -12.49935 35016 ft 426 kts 221°
2026-04-28 12:47 30.31149 -12.54016 35010 ft 426 kts 221°
2026-04-28 12:48 30.26387 -12.58085 35020 ft 425 kts 221°
2026-04-28 12:48 30.22428 -12.61462 35024 ft 425 kts 221°
2026-04-28 12:49 30.17674 -12.65529 35030 ft 425 kts 221°
2026-04-28 12:49 30.12923 -12.69586 35030 ft 425 kts 221°
2026-04-28 12:50 30.08165 -12.73642 35029 ft 425 kts 221°
2026-04-28 12:50 30.03422 -12.77700 35019 ft 425 kts 221°
2026-04-28 12:51 29.98676 -12.81761 35018 ft 425 kts 221°
2026-04-28 12:51 29.93922 -12.85818 35018 ft 425 kts 221°
2026-04-28 12:52 29.89156 -12.89878 35017 ft 425 kts 221°
2026-04-28 12:52 29.84420 -12.93902 35022 ft 426 kts 221°
2026-04-28 12:53 29.79655 -12.97951 35024 ft 426 kts 221°
2026-04-28 12:53 29.74884 -13.01999 35004 ft 426 kts 221°
2026-04-28 12:54 29.70117 -13.06042 35034 ft 425 kts 221°
2026-04-28 12:54 29.65360 -13.10073 35051 ft 424 kts 221°
2026-04-28 12:55 29.60616 -13.14080 35034 ft 423 kts 221°
2026-04-28 12:55 29.55906 -13.18057 35035 ft 423 kts 221°
2026-04-28 12:56 29.51161 -13.22060 35041 ft 423 kts 221°
2026-04-28 12:56 29.46417 -13.26058 35045 ft 423 kts 221°
2026-04-28 12:57 29.41664 -13.30051 35035 ft 423 kts 221°
2026-04-28 12:57 29.36925 -13.34030 35049 ft 422 kts 221°
2026-04-28 12:58 29.32184 -13.38002 35054 ft 422 kts 221°
2026-04-28 12:58 29.27453 -13.41966 35057 ft 421 kts 221°
2026-04-28 12:59 29.22715 -13.45940 35060 ft 421 kts 221°
2026-04-28 12:59 29.17981 -13.49897 35049 ft 421 kts 221°
2026-04-28 13:00 29.13363 -13.54017 35025 ft 419 kts 225°
2026-04-28 13:00 29.09003 -13.58422 35042 ft 418 kts 227°
2026-04-28 13:01 29.04676 -13.62854 35057 ft 418 kts 226°
2026-04-28 13:01 29.00315 -13.67202 35064 ft 419 kts 225°
2026-04-28 13:02 28.95898 -13.71534 35068 ft 419 kts 225°
2026-04-28 13:02 28.91473 -13.75870 35068 ft 418 kts 225°
2026-04-28 13:02 28.89278 -13.78027 34819 ft 413 kts 226°
2026-04-28 13:03 28.87111 -13.80155 34582 ft 409 kts 226°
2026-04-28 13:03 28.84962 -13.82266 34347 ft 406 kts 226°
2026-04-28 13:03 28.82828 -13.84364 34114 ft 404 kts 226°
2026-04-28 13:03 28.80701 -13.86453 33808 ft 403 kts 226°
2026-04-28 13:04 28.78576 -13.88544 33539 ft 403 kts 225°
2026-04-28 13:04 28.76454 -13.90628 33286 ft 402 kts 225°
2026-04-28 13:04 28.74336 -13.92706 33021 ft 400 kts 225°
2026-04-28 13:04 28.72251 -13.94748 32761 ft 399 kts 225°
2026-04-28 13:05 28.70151 -13.96805 32505 ft 397 kts 225°
2026-04-28 13:05 28.68060 -13.98850 32250 ft 396 kts 225°
2026-04-28 13:05 28.65973 -14.00885 31997 ft 394 kts 225°
2026-04-28 13:05 28.63893 -14.02913 31747 ft 393 kts 225°
2026-04-28 13:06 28.61822 -14.04930 31498 ft 391 kts 225°
2026-04-28 13:06 28.59760 -14.06943 31256 ft 389 kts 225°
2026-04-28 13:06 28.57717 -14.08933 30944 ft 385 kts 225°
2026-04-28 13:06 28.55691 -14.10910 30532 ft 383 kts 226°
2026-04-28 13:07 28.53675 -14.12878 30126 ft 381 kts 226°
2026-04-28 13:07 28.51671 -14.14833 29687 ft 379 kts 225°
2026-04-28 13:07 28.49678 -14.16773 29274 ft 375 kts 225°
2026-04-28 13:07 28.47701 -14.18693 28919 ft 372 kts 225°
2026-04-28 13:08 28.45739 -14.20596 28536 ft 369 kts 225°
2026-04-28 13:08 28.43792 -14.22486 28159 ft 367 kts 225°
2026-04-28 13:08 28.41859 -14.24368 27783 ft 365 kts 225°
2026-04-28 13:08 28.39938 -14.26241 27404 ft 363 kts 225°
2026-04-28 13:09 28.38023 -14.28105 27020 ft 361 kts 225°
2026-04-28 13:09 28.36121 -14.29954 26650 ft 359 kts 225°
2026-04-28 13:09 28.34227 -14.31787 26266 ft 357 kts 225°
2026-04-28 13:09 28.32340 -14.33612 25886 ft 355 kts 225°
2026-04-28 13:10 28.30467 -14.35425 25503 ft 353 kts 225°
2026-04-28 13:10 28.28603 -14.37230 25115 ft 352 kts 225°
2026-04-28 13:10 28.26742 -14.39028 24723 ft 350 kts 225°
2026-04-28 13:10 28.24914 -14.40792 24333 ft 349 kts 225°
2026-04-28 13:11 28.23064 -14.42576 23932 ft 349 kts 225°
2026-04-28 13:11 28.21217 -14.44362 23513 ft 348 kts 225°
2026-04-28 13:11 28.19377 -14.46139 23081 ft 346 kts 224°
2026-04-28 13:11 28.17545 -14.47905 22665 ft 344 kts 224°
2026-04-28 13:12 28.15728 -14.49654 22279 ft 341 kts 224°
2026-04-28 13:12 28.13922 -14.51396 21886 ft 339 kts 224°
2026-04-28 13:12 28.12133 -14.53121 21496 ft 337 kts 224°
2026-04-28 13:12 28.10349 -14.54838 21105 ft 336 kts 224°
2026-04-28 13:13 28.08573 -14.56548 20716 ft 334 kts 224°
2026-04-28 13:13 28.06807 -14.58249 20328 ft 333 kts 224°
2026-04-28 13:13 28.05045 -14.59945 19940 ft 332 kts 224°
2026-04-28 13:13 28.03284 -14.61640 19554 ft 331 kts 224°
2026-04-28 13:14 28.01535 -14.63327 19165 ft 330 kts 224°
2026-04-28 13:14 27.99810 -14.65035 18781 ft 328 kts 228°
2026-04-28 13:14 27.98234 -14.66902 18409 ft 327 kts 229°
2026-04-28 13:14 27.96686 -14.68735 17994 ft 326 kts 229°
2026-04-28 13:15 27.95119 -14.70584 17605 ft 324 kts 229°
2026-04-28 13:15 27.93562 -14.72419 17233 ft 322 kts 229°
2026-04-28 13:15 27.92019 -14.74241 16863 ft 320 kts 229°
2026-04-28 13:15 27.90487 -14.76050 16495 ft 318 kts 229°
2026-04-28 13:16 27.88960 -14.77855 16130 ft 316 kts 229°
2026-04-28 13:16 27.87443 -14.79645 15766 ft 315 kts 229°
2026-04-28 13:16 27.85930 -14.81429 15403 ft 314 kts 229°
2026-04-28 13:16 27.84424 -14.83206 15037 ft 312 kts 229°
2026-04-28 13:17 27.82924 -14.84976 14679 ft 311 kts 228°
2026-04-28 13:17 27.81428 -14.86736 14329 ft 310 kts 229°
2026-04-28 13:17 27.79936 -14.88493 13973 ft 309 kts 228°
2026-04-28 13:17 27.78450 -14.90245 13592 ft 308 kts 228°
2026-04-28 13:18 27.76970 -14.91990 13230 ft 306 kts 228°
2026-04-28 13:18 27.75501 -14.93720 12886 ft 304 kts 228°
2026-04-28 13:18 27.74041 -14.95435 12533 ft 302 kts 228°
2026-04-28 13:18 27.72608 -14.97117 12391 ft 292 kts 228°
2026-04-28 13:19 27.71250 -14.98710 12256 ft 278 kts 228°
2026-04-28 13:19 27.69979 -15.00295 12126 ft 268 kts 236°
2026-04-28 13:19 27.69059 -15.02095 11833 ft 265 kts 245°
2026-04-28 13:19 27.68249 -15.03951 11559 ft 262 kts 245°
2026-04-28 13:20 27.67441 -15.05802 11164 ft 260 kts 245°
2026-04-28 13:20 27.66645 -15.07621 10721 ft 256 kts 245°
2026-04-28 13:20 27.65865 -15.09411 10337 ft 253 kts 245°
2026-04-28 13:20 27.65089 -15.11187 9967 ft 252 kts 245°
2026-04-28 13:21 27.64329 -15.12956 9568 ft 250 kts 250°
2026-04-28 13:21 27.63931 -15.14853 9196 ft 250 kts 268°
2026-04-28 13:21 27.64102 -15.16793 8837 ft 250 kts 286°
2026-04-28 13:21 27.64713 -15.18630 8494 ft 250 kts 292°
2026-04-28 13:22 27.65354 -15.20447 8170 ft 250 kts 292°
2026-04-28 13:22 27.65989 -15.22257 7905 ft 247 kts 292°
2026-04-28 13:22 27.66617 -15.24057 7435 ft 245 kts 292°
2026-04-28 13:22 27.67234 -15.25825 7050 ft 240 kts 292°
2026-04-28 13:23 27.67849 -15.27577 6696 ft 239 kts 292°
2026-04-28 13:23 27.68460 -15.29321 6313 ft 240 kts 292°
2026-04-28 13:23 27.69075 -15.31083 5942 ft 242 kts 292°
2026-04-28 13:23 27.69693 -15.32857 5585 ft 243 kts 292°
2026-04-28 13:24 27.70314 -15.34635 5236 ft 244 kts 293°
2026-04-28 13:24 27.70938 -15.36422 4889 ft 245 kts 293°
2026-04-28 13:24 27.71563 -15.38212 4508 ft 242 kts 293°
2026-04-28 13:24 27.72170 -15.39947 4165 ft 234 kts 293°
2026-04-28 13:25 27.72774 -15.41614 3825 ft 225 kts 300°
2026-04-28 13:25 27.73698 -15.42975 3512 ft 214 kts 320°
2026-04-28 13:25 27.74932 -15.43856 3247 ft 208 kts 336°
2026-04-28 13:25 27.76205 -15.44513 3209 ft 194 kts 335°
2026-04-28 13:26 27.77421 -15.45027 3118 ft 186 kts 350°
2026-04-28 13:26 27.78717 -15.44997 2939 ft 186 kts 13°
2026-04-28 13:26 27.79924 -15.44496 2672 ft 183 kts 20°
2026-04-28 13:26 27.81069 -15.43987 2414 ft 175 kts 20°
2026-04-28 13:27 27.82169 -15.43502 2172 ft 164 kts 20°
2026-04-28 13:27 27.83189 -15.43053 1978 ft 149 kts 19°
2026-04-28 13:27 27.84129 -15.42639 1768 ft 140 kts 19°
2026-04-28 13:27 27.85025 -15.42244 1569 ft 138 kts 20°
2026-04-28 13:28 27.85911 -15.41854 1399 ft 135 kts 19°
2026-04-28 13:28 27.86787 -15.41468 1198 ft 137 kts 20°
2026-04-28 13:28 27.87669 -15.41074 1042 ft 135 kts 20°
2026-04-28 13:28 27.88547 -15.40695 796 ft 135 kts 19°
2026-04-28 13:29 27.89419 -15.40319 665 ft 134 kts 20°
2026-04-28 13:29 27.90274 -15.39940 464 ft 131 kts 19°
2026-04-28 13:29 27.91123 -15.39572 315 ft 129 kts 22°
2026-04-28 13:29 27.91949 -15.39204 122 ft 128 kts 22°
2026-04-28 13:30 27.92678 -15.38880 67 ft 87 kts 21°
2026-04-28 13:30 27.92990 -15.38747 61 ft 28 kts 21°
2026-04-28 13:30 27.93178 -15.38722 65 ft 26 kts 351°
2026-04-28 13:30 27.93265 -15.38737 70 ft 6 kts 351°
2026-04-28 13:31 27.93331 -15.38749 73 ft 4 kts 351°
2026-04-28 13:31 27.93352 -15.38753 74 ft 3 kts 351°
2026-04-28 13:31 27.93366 -15.38755 75 ft 2 kts 352°
2026-04-28 13:32 27.93377 -15.38757 75 ft 1 kts 352°
2026-04-28 13:32 27.93387 -15.38759 76 ft 2 kts 350°
2026-04-28 13:32 27.93407 -15.38768 76 ft 4 kts 328°
2026-04-28 13:32 27.93424 -15.38799 74 ft 5 kts 295°
2026-04-28 13:33 27.93436 -15.38831 85 ft 4 kts 290°
2026-04-28 13:33 27.93448 -15.38861 84 ft 7 kts 302°
2026-04-28 13:33 27.93512 -15.38870 83 ft 11 kts 12°
2026-04-28 13:33 27.93562 -15.38851 83 ft 7 kts 21°
2026-04-28 13:34 27.93609 -15.38833 83 ft 6 kts 359°
2026-04-28 13:34 27.93633 -15.38873 83 ft 3 kts 290°
2026-04-28 13:34 27.93637 -15.38887 88 ft 1 kts 291°
2026-04-28 13:34 27.93640 -15.38895 88 ft 0 kts 291°
2026-04-28 13:35 27.93644 -15.38905 88 ft 1 kts 291°
2026-04-28 13:35 27.93646 -15.38913 86 ft 0 kts 291°